AFR208 LIMC-LFPO

Flight info

Callsign AFR208
Flight time 1h 7m
Altitude 32000
Route AOSTA DCT ORSUD DCT MOLUS DCT UNKIR DCT DJL
Aircraft B77W/H-SDE1E2E3FGHIJ2J3J4J5M1RWXY/LB1D1

Departure

Time 2026-05-06 02:46
Airport Milan Malpensa International Airport (LIMC)

Arrival

Time 2026-05-06 03:54
Airport Paris-Orly Airport (LFPO)
Time Latitude Longitude Altitude Speed Heading
2026-05-06 02:16 45.63146 8.71353 741 ft 0 kts 169°
2026-05-06 02:34 45.63151 8.71352 741 ft 4 kts 169°
2026-05-06 02:35 45.63178 8.71345 739 ft 4 kts 169°
2026-05-06 02:35 45.63203 8.71338 738 ft 2 kts 169°
2026-05-06 02:35 45.63225 8.71328 738 ft 4 kts 128°
2026-05-06 02:35 45.63230 8.71296 738 ft 4 kts 81°
2026-05-06 02:36 45.63227 8.71271 738 ft 0 kts 81°
2026-05-06 02:38 45.63232 8.71323 738 ft 14 kts 82°
2026-05-06 02:39 45.63254 8.71503 739 ft 18 kts 79°
2026-05-06 02:39 45.63276 8.71664 739 ft 16 kts 79°
2026-05-06 02:39 45.63297 8.71824 739 ft 16 kts 79°
2026-05-06 02:39 45.63318 8.71983 739 ft 16 kts 79°
2026-05-06 02:40 45.63340 8.72143 742 ft 16 kts 78°
2026-05-06 02:40 45.63362 8.72302 740 ft 17 kts 79°
2026-05-06 02:40 45.63384 8.72467 739 ft 17 kts 79°
2026-05-06 02:40 45.63404 8.72633 738 ft 14 kts 88°
2026-05-06 02:41 45.63342 8.72725 739 ft 14 kts 158°
2026-05-06 02:41 45.63247 8.72756 741 ft 14 kts 166°
2026-05-06 02:41 45.63148 8.72787 740 ft 16 kts 169°
2026-05-06 02:41 45.63017 8.72822 741 ft 22 kts 169°
2026-05-06 02:42 45.62853 8.72871 739 ft 26 kts 167°
2026-05-06 02:42 45.62668 8.72919 740 ft 27 kts 169°
2026-05-06 02:42 45.62483 8.72970 739 ft 27 kts 169°
2026-05-06 02:42 45.62301 8.73021 741 ft 27 kts 169°
2026-05-06 02:43 45.62114 8.73071 740 ft 27 kts 169°
2026-05-06 02:43 45.61928 8.73121 742 ft 27 kts 169°
2026-05-06 02:43 45.61775 8.73171 738 ft 17 kts 154°
2026-05-06 02:43 45.61700 8.73291 740 ft 16 kts 123°
2026-05-06 02:44 45.61637 8.73426 740 ft 16 kts 123°
2026-05-06 02:44 45.61590 8.73553 739 ft 14 kts 105°
2026-05-06 02:44 45.61587 8.73632 742 ft 6 kts 82°
2026-05-06 02:44 45.61593 8.73696 739 ft 7 kts 82°
2026-05-06 02:45 45.61609 8.73741 738 ft 5 kts 22°
2026-05-06 02:45 45.61617 8.73739 739 ft 0 kts 349°
2026-05-06 02:46 45.61783 8.73693 740 ft 63 kts 349°
2026-05-06 02:46 45.62495 8.73494 742 ft 142 kts 349°
2026-05-06 02:46 45.63657 8.73184 928 ft 185 kts 349°
2026-05-06 02:46 45.64924 8.72831 1733 ft 190 kts 350°
2026-05-06 02:47 45.66260 8.72538 2433 ft 197 kts
2026-05-06 02:47 45.67708 8.72539 2795 ft 223 kts
2026-05-06 02:47 45.69315 8.72561 3371 ft 236 kts
2026-05-06 02:47 45.70974 8.72559 4161 ft 239 kts 360°
2026-05-06 02:48 45.72579 8.71993 4872 ft 244 kts 326°
2026-05-06 02:48 45.73676 8.70186 5681 ft 243 kts 291°
2026-05-06 02:48 45.73919 8.67866 6466 ft 241 kts 259°
2026-05-06 02:48 45.73390 8.65578 7242 ft 240 kts 243°
2026-05-06 02:49 45.72651 8.63438 8114 ft 244 kts 241°
2026-05-06 02:49 45.71886 8.61260 9072 ft 246 kts 241°
2026-05-06 02:49 45.71045 8.59085 9861 ft 258 kts 237°
2026-05-06 02:49 45.70026 8.56793 10188 ft 286 kts 236°
2026-05-06 02:50 45.68894 8.54272 10432 ft 317 kts 236°
2026-05-06 02:50 45.67650 8.51481 10748 ft 346 kts 236°
2026-05-06 02:50 45.66341 8.48546 11646 ft 354 kts 236°
2026-05-06 02:50 45.65007 8.45549 12890 ft 357 kts 236°
2026-05-06 02:51 45.63675 8.42558 14186 ft 357 kts 235°
2026-05-06 02:51 45.62301 8.39582 15339 ft 360 kts 231°
2026-05-06 02:51 45.60728 8.36800 16465 ft 361 kts 227°
2026-05-06 02:51 45.59270 8.33871 17404 ft 370 kts 241°
2026-05-06 02:52 45.58556 8.30298 18372 ft 382 kts 259°
2026-05-06 02:52 45.58607 8.26453 19263 ft 396 kts 275°
2026-05-06 02:52 45.59374 8.22679 19974 ft 406 kts 283°
2026-05-06 02:52 45.60311 8.18826 20707 ft 414 kts 284°
2026-05-06 02:53 45.61280 8.14910 21545 ft 419 kts 283°
2026-05-06 02:53 45.62238 8.10971 22448 ft 422 kts 283°
2026-05-06 02:53 45.63186 8.06976 23280 ft 426 kts 282°
2026-05-06 02:53 45.64128 8.02929 23986 ft 431 kts 282°
2026-05-06 02:54 45.65071 7.98847 24612 ft 435 kts 282°
2026-05-06 02:54 45.66019 7.94724 25307 ft 436 kts 282°
2026-05-06 02:54 45.66962 7.90600 26069 ft 437 kts 281°
2026-05-06 02:54 45.67907 7.86463 26719 ft 441 kts 281°
2026-05-06 02:55 45.68852 7.82310 27308 ft 445 kts 281°
2026-05-06 02:55 45.69813 7.78086 27926 ft 449 kts 281°
2026-05-06 02:55 45.70779 7.73828 28657 ft 449 kts 281°
2026-05-06 02:55 45.71740 7.69611 29745 ft 442 kts 281°
2026-05-06 02:56 45.72687 7.65440 30634 ft 438 kts 281°
2026-05-06 02:56 45.73619 7.61313 31379 ft 433 kts 280°
2026-05-06 02:56 45.74543 7.57215 31891 ft 431 kts 280°
2026-05-06 02:57 45.76373 7.49049 31907 ft 431 kts 280°
2026-05-06 02:57 45.78204 7.40842 31918 ft 449 kts 280°
2026-05-06 02:57 45.79347 7.36678 31891 ft 467 kts 292°
2026-05-06 02:58 45.81293 7.32817 31873 ft 492 kts 308°
2026-05-06 02:58 45.84033 7.29692 31902 ft 509 kts 319°
2026-05-06 02:58 45.87007 7.26863 31888 ft 516 kts 320°
2026-05-06 02:59 45.93019 7.21059 31878 ft 524 kts 319°
2026-05-06 02:59 45.98966 7.14985 31870 ft 525 kts 319°
2026-05-06 03:00 46.04888 7.08883 31891 ft 527 kts 318°
2026-05-06 03:00 46.10843 7.02754 31869 ft 524 kts 319°
2026-05-06 03:01 46.16764 6.96650 31866 ft 522 kts 319°
2026-05-06 03:01 46.22661 6.90547 31880 ft 522 kts 319°
2026-05-06 03:02 46.28576 6.84403 31880 ft 523 kts 319°
2026-05-06 03:02 46.34495 6.78248 31857 ft 524 kts 319°
2026-05-06 03:03 46.40377 6.72039 31868 ft 520 kts 315°
2026-05-06 03:03 46.45350 6.64714 31882 ft 509 kts 303°
2026-05-06 03:04 46.49185 6.56202 31877 ft 502 kts 293°
2026-05-06 03:04 46.52594 6.47364 31880 ft 502 kts 293°
2026-05-06 03:05 46.56025 6.38503 31881 ft 503 kts 294°
2026-05-06 03:05 46.59493 6.29647 31880 ft 504 kts 294°
2026-05-06 03:06 46.62969 6.20782 31887 ft 504 kts 294°
2026-05-06 03:06 46.66415 6.11963 31876 ft 504 kts 294°
2026-05-06 03:07 46.69873 6.03076 31872 ft 504 kts 294°
2026-05-06 03:07 46.73326 5.94168 31882 ft 505 kts 294°
2026-05-06 03:08 46.76770 5.85255 31882 ft 505 kts 294°
2026-05-06 03:08 46.80298 5.76365 31867 ft 509 kts 298°
2026-05-06 03:09 46.84743 5.68220 31858 ft 517 kts 309°
2026-05-06 03:09 46.89085 5.62188 31852 ft 519 kts 313°
2026-05-06 03:10 46.95279 5.53866 31836 ft 519 kts 312°
2026-05-06 03:10 46.99706 5.47825 31832 ft 519 kts 312°
2026-05-06 03:11 47.04961 5.40563 31833 ft 519 kts 312°
2026-05-06 03:11 47.10171 5.33327 31833 ft 519 kts 312°
2026-05-06 03:12 47.15412 5.26035 31839 ft 519 kts 312°
2026-05-06 03:12 47.20645 5.18736 31835 ft 519 kts 312°
2026-05-06 03:13 47.25875 5.11423 31834 ft 519 kts 312°
2026-05-06 03:13 47.30963 5.04019 31388 ft 503 kts 309°
2026-05-06 03:13 47.33327 5.00344 30522 ft 484 kts 308°
2026-05-06 03:14 47.35578 4.96803 29986 ft 464 kts 307°
2026-05-06 03:14 47.37746 4.93401 29427 ft 446 kts 307°
2026-05-06 03:14 47.39851 4.90111 28957 ft 438 kts 308°
2026-05-06 03:14 47.41936 4.86864 28510 ft 433 kts 308°
2026-05-06 03:15 47.43999 4.83659 28035 ft 429 kts 308°
2026-05-06 03:15 47.46049 4.80480 27577 ft 425 kts 309°
2026-05-06 03:15 47.48084 4.77325 27119 ft 422 kts 309°
2026-05-06 03:15 47.50070 4.74240 26716 ft 417 kts 309°
2026-05-06 03:16 47.52052 4.71162 26463 ft 408 kts 309°
2026-05-06 03:16 47.53989 4.68153 26199 ft 400 kts 309°
2026-05-06 03:16 47.55891 4.65192 25945 ft 393 kts 309°
2026-05-06 03:16 47.57766 4.62269 25687 ft 389 kts 309°
2026-05-06 03:17 47.59635 4.59345 25455 ft 391 kts 309°
2026-05-06 03:17 47.61514 4.56404 25217 ft 393 kts 310°
2026-05-06 03:17 47.63379 4.53482 24955 ft 394 kts 310°
2026-05-06 03:17 47.65256 4.50542 24695 ft 392 kts 310°
2026-05-06 03:18 47.67131 4.47601 24442 ft 390 kts 310°
2026-05-06 03:18 47.68990 4.44683 24194 ft 388 kts 310°
2026-05-06 03:18 47.70839 4.41777 23938 ft 386 kts 310°
2026-05-06 03:18 47.72681 4.38878 23682 ft 384 kts 310°
2026-05-06 03:19 47.74508 4.36000 23432 ft 382 kts 310°
2026-05-06 03:19 47.76323 4.33137 23152 ft 380 kts 310°
2026-05-06 03:19 47.78130 4.30284 22874 ft 377 kts 311°
2026-05-06 03:19 47.79921 4.27452 22608 ft 375 kts 311°
2026-05-06 03:20 47.83430 4.21898 22142 ft 370 kts 311°
2026-05-06 03:20 47.85188 4.19112 21903 ft 368 kts 311°
2026-05-06 03:20 47.86881 4.16279 21655 ft 364 kts 304°
2026-05-06 03:21 47.88172 4.13074 21430 ft 360 kts 293°
2026-05-06 03:21 47.89057 4.09603 21196 ft 358 kts 282°
2026-05-06 03:21 47.89617 4.05989 20978 ft 357 kts 280°
2026-05-06 03:21 47.90125 4.02372 20738 ft 358 kts 279°
2026-05-06 03:22 47.90623 3.98764 20510 ft 358 kts 279°
2026-05-06 03:22 47.91125 3.95170 20278 ft 359 kts 279°
2026-05-06 03:22 47.91640 3.91524 20032 ft 360 kts 280°
2026-05-06 03:22 47.92166 3.87836 19823 ft 359 kts 280°
2026-05-06 03:23 47.92689 3.84194 19576 ft 359 kts 280°
2026-05-06 03:23 47.93211 3.80560 19347 ft 358 kts 280°
2026-05-06 03:23 47.93725 3.76985 19112 ft 357 kts 280°
2026-05-06 03:23 47.94245 3.73367 18881 ft 355 kts 280°
2026-05-06 03:24 47.94752 3.69817 18645 ft 353 kts 280°
2026-05-06 03:24 47.95262 3.66248 18423 ft 351 kts 280°
2026-05-06 03:24 47.95768 3.62703 18203 ft 348 kts 280°
2026-05-06 03:24 47.96271 3.59164 17959 ft 347 kts 280°
2026-05-06 03:25 47.96770 3.55654 17756 ft 344 kts 281°
2026-05-06 03:25 47.97276 3.52185 17611 ft 339 kts 281°
2026-05-06 03:25 47.97777 3.48779 17494 ft 337 kts 281°
2026-05-06 03:25 47.98282 3.45345 17374 ft 339 kts 281°
2026-05-06 03:26 47.98789 3.41891 17242 ft 342 kts 281°
2026-05-06 03:26 47.99298 3.38413 17131 ft 344 kts 281°
2026-05-06 03:26 47.99807 3.34924 16999 ft 344 kts 281°
2026-05-06 03:26 48.00313 3.31440 16852 ft 343 kts 281°
2026-05-06 03:27 48.00818 3.27965 16740 ft 341 kts 281°
2026-05-06 03:27 48.01318 3.24507 16612 ft 340 kts 281°
2026-05-06 03:27 48.01814 3.21079 16475 ft 338 kts 281°
2026-05-06 03:27 48.02307 3.17655 16363 ft 337 kts 281°
2026-05-06 03:28 48.02797 3.14242 16231 ft 336 kts 281°
2026-05-06 03:28 48.03285 3.10834 16108 ft 334 kts 281°
2026-05-06 03:28 48.03771 3.07436 15985 ft 333 kts 281°
2026-05-06 03:28 48.04254 3.04051 15865 ft 332 kts 281°
2026-05-06 03:29 48.04734 3.00678 15743 ft 332 kts 281°
2026-05-06 03:29 48.05213 2.97312 15614 ft 331 kts 281°
2026-05-06 03:29 48.05683 2.93994 15507 ft 330 kts 281°
2026-05-06 03:29 48.06159 2.90626 15380 ft 330 kts 281°
2026-05-06 03:30 48.06632 2.87273 15255 ft 330 kts 281°
2026-05-06 03:30 48.07103 2.83923 15137 ft 329 kts 281°
2026-05-06 03:30 48.07573 2.80582 15019 ft 328 kts 281°
2026-05-06 03:30 48.08042 2.77237 14895 ft 327 kts 281°
2026-05-06 03:31 48.08508 2.73905 14772 ft 326 kts 281°
2026-05-06 03:31 48.08971 2.70588 14648 ft 325 kts 281°
2026-05-06 03:31 48.09431 2.67282 14541 ft 325 kts 281°
2026-05-06 03:31 48.09891 2.63968 14417 ft 324 kts 281°
2026-05-06 03:32 48.10348 2.60673 14306 ft 323 kts 281°
2026-05-06 03:32 48.10803 2.57381 14176 ft 323 kts 281°
2026-05-06 03:32 48.11258 2.54088 14047 ft 322 kts 281°
2026-05-06 03:32 48.11703 2.50856 13938 ft 321 kts 281°
2026-05-06 03:33 48.12151 2.47594 13822 ft 320 kts 281°
2026-05-06 03:33 48.12597 2.44335 13698 ft 318 kts 281°
2026-05-06 03:33 48.13040 2.41095 13578 ft 317 kts 281°
2026-05-06 03:33 48.13481 2.37865 13447 ft 316 kts 281°
2026-05-06 03:34 48.13920 2.34643 13331 ft 315 kts 281°
2026-05-06 03:34 48.14356 2.31430 13215 ft 314 kts 281°
2026-05-06 03:34 48.14790 2.28229 13094 ft 313 kts 281°
2026-05-06 03:34 48.15223 2.25030 12972 ft 313 kts 281°
2026-05-06 03:35 48.15653 2.21838 12867 ft 312 kts 281°
2026-05-06 03:35 48.16078 2.18685 12745 ft 312 kts 281°
2026-05-06 03:35 48.16506 2.15499 12630 ft 312 kts 281°
2026-05-06 03:35 48.16934 2.12308 12516 ft 312 kts 281°
2026-05-06 03:36 48.17359 2.09127 12409 ft 312 kts 281°
2026-05-06 03:36 48.17784 2.05940 12286 ft 311 kts 281°
2026-05-06 03:36 48.18207 2.02765 12168 ft 311 kts 281°
2026-05-06 03:36 48.18630 1.99581 12063 ft 311 kts 281°
2026-05-06 03:37 48.19052 1.96401 11944 ft 310 kts 281°
2026-05-06 03:37 48.19471 1.93229 11822 ft 310 kts 281°
2026-05-06 03:37 48.19891 1.90047 11637 ft 312 kts 281°
2026-05-06 03:37 48.20310 1.86865 11499 ft 311 kts 281°
2026-05-06 03:38 48.20723 1.83724 11415 ft 303 kts 281°
2026-05-06 03:38 48.21111 1.80763 11266 ft 282 kts 281°
2026-05-06 03:38 48.21477 1.77973 11106 ft 262 kts 281°
2026-05-06 03:38 48.21816 1.75382 10955 ft 247 kts 280°
2026-05-06 03:39 48.22141 1.72894 10804 ft 239 kts 280°
2026-05-06 03:39 48.22453 1.70486 10637 ft 233 kts 280°
2026-05-06 03:39 48.22764 1.68085 10256 ft 236 kts 280°
2026-05-06 03:39 48.23076 1.65678 9990 ft 233 kts 280°
2026-05-06 03:40 48.23400 1.63348 9886 ft 222 kts 288°
2026-05-06 03:40 48.24240 1.61469 9877 ft 223 kts 320°
2026-05-06 03:40 48.25699 1.60393 9854 ft 245 kts 347°
2026-05-06 03:40 48.27401 1.60523 9840 ft 248 kts 19°
2026-05-06 03:41 48.28867 1.61816 9850 ft 245 kts 33°
2026-05-06 03:41 48.30273 1.63290 9846 ft 248 kts 33°
2026-05-06 03:41 48.31689 1.64765 9846 ft 247 kts 33°
2026-05-06 03:41 48.33078 1.66200 9839 ft 244 kts 33°
2026-05-06 03:42 48.34484 1.67645 9841 ft 244 kts 33°
2026-05-06 03:42 48.35887 1.69084 9840 ft 244 kts 32°
2026-05-06 03:42 48.37289 1.70519 9846 ft 243 kts 32°
2026-05-06 03:42 48.38716 1.71978 9569 ft 251 kts 32°
2026-05-06 03:43 48.40146 1.73441 9256 ft 246 kts 33°
2026-05-06 03:43 48.41534 1.74863 8954 ft 237 kts 33°
2026-05-06 03:43 48.42873 1.76235 8676 ft 228 kts 33°
2026-05-06 03:43 48.44154 1.77547 8420 ft 219 kts 33°
2026-05-06 03:44 48.45409 1.78833 8197 ft 219 kts 33°
2026-05-06 03:44 48.46682 1.80138 7944 ft 223 kts 33°
2026-05-06 03:44 48.47971 1.81460 7698 ft 224 kts 33°
2026-05-06 03:44 48.49256 1.82780 7453 ft 223 kts 33°
2026-05-06 03:45 48.50542 1.84102 7181 ft 222 kts 33°
2026-05-06 03:45 48.51812 1.85408 6891 ft 217 kts 33°
2026-05-06 03:45 48.53030 1.86661 6633 ft 207 kts 33°
2026-05-06 03:45 48.54183 1.87848 6423 ft 200 kts 33°
2026-05-06 03:46 48.55321 1.89020 6379 ft 199 kts 33°
2026-05-06 03:46 48.56506 1.90240 6105 ft 206 kts 33°
2026-05-06 03:46 48.57608 1.91514 5835 ft 199 kts 50°
2026-05-06 03:46 48.58289 1.93274 5640 ft 190 kts 59°
2026-05-06 03:47 48.58921 1.95002 5422 ft 187 kts 57°
2026-05-06 03:47 48.59566 1.96721 5206 ft 189 kts 58°
2026-05-06 03:47 48.60200 1.98460 5068 ft 188 kts 58°
2026-05-06 03:47 48.60825 2.00200 4779 ft 187 kts 58°
2026-05-06 03:48 48.61433 2.01908 4550 ft 182 kts 58°
2026-05-06 03:48 48.62020 2.03560 4335 ft 174 kts 58°
2026-05-06 03:48 48.62579 2.05134 4115 ft 167 kts 58°
2026-05-06 03:48 48.63132 2.06689 3951 ft 170 kts 58°
2026-05-06 03:49 48.63699 2.08285 3727 ft 172 kts 58°
2026-05-06 03:49 48.64258 2.09860 3497 ft 168 kts 58°
2026-05-06 03:49 48.64796 2.11380 3272 ft 161 kts 58°
2026-05-06 03:49 48.65331 2.12883 3058 ft 162 kts 58°
2026-05-06 03:50 48.65863 2.14383 2858 ft 160 kts 58°
2026-05-06 03:50 48.66370 2.15816 2645 ft 149 kts 58°
2026-05-06 03:50 48.66846 2.17160 2463 ft 143 kts 58°
2026-05-06 03:50 48.67321 2.18495 2279 ft 146 kts 58°
2026-05-06 03:51 48.67796 2.19839 2084 ft 145 kts 57°
2026-05-06 03:51 48.68268 2.21171 1867 ft 142 kts 56°
2026-05-06 03:51 48.68735 2.22489 1688 ft 143 kts 55°
2026-05-06 03:51 48.69211 2.23828 1467 ft 146 kts 56°
2026-05-06 03:52 48.69697 2.25199 1279 ft 149 kts 58°
2026-05-06 03:52 48.70186 2.26586 1078 ft 152 kts 58°
2026-05-06 03:52 48.70690 2.28007 898 ft 154 kts 58°
2026-05-06 03:52 48.71190 2.29422 713 ft 149 kts 58°
2026-05-06 03:53 48.71679 2.30813 480 ft 152 kts 57°
2026-05-06 03:53 48.72176 2.32203 324 ft 149 kts 58°
2026-05-06 03:53 48.72655 2.33533 290 ft 131 kts 61°
2026-05-06 03:53 48.73012 2.34550 288 ft 87 kts 62°
2026-05-06 03:54 48.73226 2.35160 289 ft 53 kts 62°
2026-05-06 03:54 48.73267 2.35409 287 ft 14 kts 120°
2026-05-06 03:54 48.73191 2.35503 290 ft 14 kts 146°
2026-05-06 03:54 48.73121 2.35573 289 ft 10 kts 147°
2026-05-06 03:55 48.73059 2.35615 288 ft 10 kts 182°
2026-05-06 03:55 48.73003 2.35557 289 ft 10 kts 214°
2026-05-06 03:55 48.72960 2.35536 290 ft 10 kts 189°
2026-05-06 03:55 48.72870 2.35552 284 ft 10 kts 167°
2026-05-06 03:56 48.72826 2.35570 287 ft 9 kts 164°
2026-05-06 03:56 48.72788 2.35622 286 ft 7 kts 120°
2026-05-06 03:56 48.72756 2.35676 289 ft 6 kts 142°
2026-05-06 03:56 48.72730 2.35705 288 ft 0 kts 146°